Regional Weather Roundup
Issued by NWS Charleston, SC

Current Version | Previous Version | Graphics & Text | Print | Product List | Glossary On
Versions: 1 2 3 4 5 6 7 8 9 10 11 12 13 14 15 16 17 18 19 20 21 22 23 24 25 26 27 28 29 30 31 32 33 34 35 36 37 38 39 40 41 42 43 44 45 46 47 48 49 50
000 ASUS42 KCHS 210327 RWRCHS REGIONAL WEATHER ROUNDUP NATIONAL WEATHER SERVICE CHARLESTON SC 1000 PM EST FRI JAN 20 2017 NOTE: "FAIR" INDICATES FEW OR NO CLOUDS BELOW 12,000 FEET WITH NO SIGNIFICANT WEATHER AND/OR OBSTRUCTIONS TO VISIBILITY. NOT ALL STATIONS ARE QUALITY CONTROLLED. USE DATA WITH CAUTION... ESPECIALLY DEWPOINT OBSERVATIONS. SCZ027-030-031-034>040-042>050-210400- ...SOUTHEAST SOUTH CAROLINA... CITY SKY/WX TMP DP RH WIND PRES REMARKS N CHARLESTON CLEAR 61 58 90 S3 29.92S WATERFRONT PRK N/A 62 61 96 VRB2 29.92R MOUNT PLEASANT FAIR 61 61 100 CALM 29.93S JOHNS ISLAND FOG 59 59 100 CALM 29.93S VSB 1 PINOPOLIS N/A 64 63 94 SW6 29.82R MONCKS CORNER FAIR 61 57 88 CALM 29.92S SUMMERVILLE FAIR N/A N/A N/A CALM 29.92S BEAUFORT MCAS CLOUDY 64 61 90 CALM 29.93R BEAUFORT ARPT CLOUDY 63 61 94 S7 29.93R HILTON HEAD IS PTCLDY 64 64 100 MISG 29.94R WALTERBORO PTCLDY 61 59 94 CALM 29.93S ALLENDALE FAIR 63 59 88 CALM 29.90S ...SOUTHERN MIDLANDS AND PEE DEE... CITY SKY/WX TMP DP RH WIND PRES REMARKS GEORGETOWN FAIR 57 55 94 SW5 29.94R KINGSTREE FAIR 63 57 82 CALM 29.91S ORANGEBURG PTCLDY 62 59 90 S5 29.90S BARNWELL FAIR 64 61 88 CALM 29.91S AIKEN FAIR 59 55 88 S5 29.93R MANNING FAIR 57 54 88 CALM 29.91S COLUMBIA PTCLDY 62 56 80 CALM 29.88R SUMTER PTCLDY 61 57 85 S3 29.87S FLORENCE CLOUDY 60 58 92 S3 29.90R MYRTLE BEACH CLEAR 57 54 88 SW7 29.93R N MYRTLE BEACH CLEAR 54 54 100 CALM 29.91R $$ GAZ063-065-086>088-099>101-113>116-118-119-134>141-150-210400- ...SOUTHEAST GEORGIA... CITY SKY/WX TMP DP RH WIND PRES REMARKS SAVANNAH ARPT CLOUDY 65 60 84 S7 29.93R HUNTER AAF MOCLDY 66 66 100 S3 29.91R FORT STEWART CLOUDY 64 63 94 CALM 29.90F STATESBORO CLOUDY 63 63 100 CALM 29.91S SYLVANIA CLOUDY N/A N/A N/A S5 29.92S CLAXTON CLOUDY N/A N/A N/A CALM 29.92S ...CSRA...CENTRAL AND FAR SOUTHEAST GEORGIA... CITY SKY/WX TMP DP RH WIND PRES REMARKS THOMSON CLEAR 64 61 90 CALM 29.94R AUGUSTA-BUSH CLEAR 66 59 78 SW8 29.89R AUGUSTA-DANIEL CLEAR 66 57 72 SW5 29.90R SWAINSBORO CLOUDY 66 63 88 S5 29.91S VIDALIA LGT RAIN 66 66 100 NW6 29.92R EASTMAN CLOUDY 66 66 100 CALM 29.92F HAZLEHURST CLOUDY 69 69 100 S8 29.90S ALMA CLOUDY 69 67 93 SW8 29.92R WAYCROSS CLOUDY 73 72 96 SW7 29.93S JESUP CLOUDY 68 64 88 CALM 29.93S BAXLEY CLOUDY 70 70 100 SW12 29.91S BRUNSWICK CLOUDY 72 66 83 SW5 29.94R SAINT SIMONS CLOUDY 71 63 75 SW7 29.93S $$ SCZ027-028-034-036>038-045-046-048>050-GAZ119-141-210400- ...LAKE AND SUPPLEMENTAL COASTAL OBSERVATIONS... STATION/POSITION TIME TEMP WIND PRES WAVE SWELL AIR SEA DIR/SP/G HT/PER HT/PER/DIR (UTC) (F) (DEG/KT/KT) (MB) (FT/S) (FT/S/D) WINYAH BAY 0245 61 220/ 4 1013.0R LAKE MURRAY 0230 62 180/ 1/ 3 1011.5R ACE BASIN NERRS 0245 60 CALM 1013.0S FORT PULASKI 0300 63 58 190/ 1/ 2 1013.7 SAPELO ISLAND 0300 66 170/ 2 1013.0 $$ ANZ835-935-AMZ111-154-330-350-352-354-370-450-454-472-210400- ...C-MAN AND BUOY OBSERVATIONS... STATION/POSITION TIME TEMP WIND PRES WAVE SWELL AIR SEA DIR/SP/G HT/PER HT/PER/DIR (UTC) (F) (DEG/KT/KT) (MB) (FT/S) (FT/S/D) BUOY 41004 0250 69 69 230/ 8/ 10 1013.1R 3/11 2/110/11 BUOY 41008 0250 64 61 160/ 6/ 6 1013.2R 2/ 5 2/150/ 5 FOLLY BEACH CMAN 0300 62 220/ 6/ 8 1014.0R CAPERS NEARSHORE 0208 57 56 260/ 4/ 6 1013.2R FRIPP NEARSHORE 0308 61 59 200/ 4/ 8 1013.3R STATION/POSITION TIME TEMP WIND PRES WAVE SWELL AIR SEA DIR/SP/G HT/PER HT/PER/DIR (UTC) (F) (DEG/KT/KT) (MB) (FT/S) (FT/S/D) 5E ST. MARYS GA 0300 64 N/A 2/11 FRYING PAN BUOY 0310 69 71 260/ 14/ 17 1012.8 BUOY 41025 0250 64 76 310/ 12/ 14 1011.7R 4/14 3/110/14 CAPE LOOKOUT NC 0300 59 310/ 5/ 7 1011.9R BUOY 41002 0250 72 70 200/ 10/ 12 1013.9R 5/11 5/ 20/11 BUOY 41010 NOT AVBL ST AUGUSTINE FL 0300 69 63 220/ 3/ 3 1015.2R $$

USA.gov is the U.S. government's official web portal to all federal, state and local government web resources and services.